Home   Weather   43°42'N, 85°29'W   Past weeks
Flag for USA

Past Weather in 43°42'N, 85°29'W, USA — Yesterday and Last 2 Weeks

Now
18 °F

Overcast.


Feels Like: 18 °F
Forecast: 27 / 14 °F
Wind: No wind

Location: Roben-Hood Airport

Current Time: Jan 17, 2019 at 10:32:20 am

Latest Report: Jan 17, 2019 at 9:56 am


Visibility: 10 mi

Pressure: 30.15 "Hg

Humidity: 85%

Dew Point: 14 °F

Location of 43°42'N, 85°29'WLocation

Past Weather in 43°42'N, 85°29'W — Graph

°F

43°42'N, 85°29'W Temperature Yesterday

Maximum temperature yesterday: 32 °F (at 2:36 am)
Minimum temperature yesterday: 13 °F (at 11:55 pm)
Average temperature yesterday: 23 °F

High & Low Weather Summary for the Past Weeks

 TemperatureHumidityPressure
High47 °F (Jan 5, 3:36 pm)99% (Jan 5, 12:36 am)30.46 "Hg (Jan 5, 12:36 am)
Low12 °F (Jan 17, 4:35 am)56% (Jan 13, 4:16 pm)29.45 "Hg (Jan 7, 4:56 pm)
Average28 °F82%30.07 "Hg
* Reported Jan 2 9:16 am — Jan 17 9:15 am, 43°42'N, 85°29'W. Weather by CustomWeather, © 2019

Note: Actual official high and low records may vary slightly from our data, if they occured in-between our weather recording intervals... More about our weather records

Advertising

43°42'N, 85°29'W Weather History for the Previous 24 Hours

Scroll right to see more
 ConditionsComfort  
Time TempWeatherWind HumidityBarometerVisibility
9:15 am
Thu, Jan 17
17 °FOvercast.No wind86%30.16 "Hg10 mi
8:36 am15 °FOvercast.No wind85%30.16 "Hg10 mi
8:16 am15 °FOvercast.No wind86%30.17 "Hg10 mi
7:55 am14 °FOvercast.No wind86%30.17 "Hg10 mi
7:36 am13 °FMostly cloudy.No wind87%30.18 "Hg10 mi
7:16 am13 °FPassing clouds.No wind86%30.18 "Hg10 mi
6:55 am13 °FPassing clouds.No wind85%30.18 "Hg10 mi
6:35 am13 °FClear.No wind85%30.19 "Hg10 mi
6:15 am13 °FClear.No wind84%30.19 "Hg10 mi
5:56 am13 °FClear.No wind85%30.19 "Hg10 mi
5:35 am13 °FClear.No wind85%30.20 "Hg10 mi
5:15 am13 °FClear.No wind86%30.22 "Hg10 mi
4:56 am12 °FClear.No wind87%30.23 "Hg10 mi
4:35 am12 °FClear.No wind87%30.24 "Hg10 mi
4:15 am13 °FClear.No wind86%30.25 "Hg10 mi
3:55 am14 °FClear.No wind84%30.25 "Hg10 mi
3:36 am14 °FClear.No wind83%30.26 "Hg10 mi
3:15 am15 °FClear.No wind84%30.26 "Hg10 mi
2:55 am15 °FClear.No wind84%30.27 "Hg10 mi
2:36 am15 °FClear.No wind85%30.27 "Hg10 mi
2:15 am15 °FClear.No wind86%30.27 "Hg10 mi
1:55 am15 °FClear.No wind85%30.27 "Hg10 mi
1:36 am15 °FClear.No wind86%30.27 "Hg10 mi
12:55 am14 °FClear.No wind86%30.28 "Hg10 mi
12:36 am13 °FClear.No wind88%30.28 "Hg10 mi
12:15 am14 °FClear.No wind86%30.29 "Hg10 mi
11:55 pm
Wed, Jan 16
13 °FClear.No wind90%30.29 "Hg10 mi
11:35 pm13 °FClear.No wind89%30.30 "Hg10 mi
11:15 pm13 °FClear.No wind87%30.30 "Hg10 mi
10:55 pm14 °FClear.No wind83%30.30 "Hg10 mi
10:36 pm15 °FClear.No wind84%30.30 "Hg10 mi
10:16 pm16 °FPassing clouds.No wind86%30.30 "Hg10 mi
9:56 pm16 °FPassing clouds.No wind85%30.30 "Hg10 mi
9:35 pm16 °FPassing clouds.No wind82%30.30 "Hg10 mi
9:15 pm16 °FPassing clouds.No wind85%30.30 "Hg10 mi
8:56 pm17 °FClear.No wind82%30.29 "Hg10 mi
8:35 pm18 °FClear.No wind82%30.29 "Hg10 mi
8:16 pm18 °FClear.No wind81%30.30 "Hg10 mi
7:56 pm19 °FClear.No wind75%30.30 "Hg10 mi
7:35 pm18 °FClear.No wind78%30.29 "Hg10 mi
6:56 pm19 °FClear.No wind70%30.28 "Hg10 mi
6:36 pm20 °FClear.No wind69%30.27 "Hg10 mi
6:15 pm20 °FClear.No wind72%30.26 "Hg10 mi
5:56 pm21 °FClear.No wind67%30.26 "Hg10 mi
5:35 pm22 °FClear.3 mph61%30.26 "Hg10 mi
5:15 pm22 °FSunny.No wind63%30.25 "Hg10 mi
4:36 pm23 °FSunny.3 mph60%30.25 "Hg10 mi
4:16 pm24 °FSunny.3 mph61%30.26 "Hg10 mi
3:55 pm23 °FScattered clouds.6 mph63%30.26 "Hg10 mi
3:36 pm24 °FScattered clouds.5 mph64%30.26 "Hg10 mi
3:15 pm25 °FPartly sunny.5 mph63%30.25 "Hg10 mi
2:55 pm23 °FPartly sunny.No wind64%30.24 "Hg10 mi
2:35 pm22 °FScattered clouds.5 mph65%30.24 "Hg10 mi
2:16 pm23 °FOvercast.5 mph67%30.24 "Hg10 mi
2:15 pm23 °FOvercast.5 mph67%30.24 "Hg10 mi
1:55 pm22 °FOvercast.No wind67%30.24 "Hg10 mi
1:35 pm22 °FOvercast.No wind66%30.24 "Hg10 mi
12:55 pm22 °FOvercast.5 mph67%30.23 "Hg10 mi
12:35 pm21 °FLight snow. Overcast.6 mph69%30.24 "Hg10 mi
12:16 pm21 °FOvercast.8 mph69%30.25 "Hg10 mi
11:55 am21 °FOvercast.6 mph69%30.25 "Hg10 mi
11:35 am21 °FLight snow. Overcast.7 mph71%30.25 "Hg10 mi
11:15 am20 °FLight snow. Overcast.7 mph72%30.25 "Hg10 mi
10:56 am20 °FOvercast.7 mph72%30.24 "Hg10 mi
10:36 am20 °FOvercast.9 mph71%30.23 "Hg10 mi
10:15 am20 °FLight snow. Overcast.7 mph73%30.22 "Hg10 mi
Weather by CustomWeather, © 2019

See weather overview